Time,TemperatureF,DewpointF,PressureIn,WindDirection,WindDirectionDegrees,WindSpeedMPH,WindSpeedGustMPH,Humidity,HourlyPrecipIn,Conditions,Clouds,dailyrainin,SolarRadiationWatts/m^2,SoftwareType,DateUTC
2013-04-16 00:01:00,47.3,37.0,29.96,NNE,19,0.0,6.0,67,0.00,,,0.00,0,weatherlink.com 1.10,2013-04-16 07:01:00,
2013-04-16 00:16:00,46.9,36.0,29.96,NNE,16,1.0,5.0,67,0.00,,,0.00,0,weatherlink.com 1.10,2013-04-16 07:16:00,
2013-04-16 00:31:00,46.9,36.0,29.97,East,82,3.0,8.0,67,0.00,,,0.00,0,weatherlink.com 1.10,2013-04-16 07:31:00,
2013-04-16 00:46:00,46.9,36.0,29.98,ESE,103,4.0,8.0,66,0.00,,,0.00,0,weatherlink.com 1.10,2013-04-16 07:46:00,
2013-04-16 01:01:00,46.8,36.0,29.98,NNW,342,3.0,9.0,66,0.00,,,0.00,0,weatherlink.com 1.10,2013-04-16 08:01:00,
2013-04-16 01:16:00,46.6,36.0,29.98,NE,55,5.0,9.0,66,0.00,,,0.00,0,weatherlink.com 1.10,2013-04-16 08:16:00,
2013-04-16 01:32:00,46.6,35.0,29.99,NW,311,3.0,9.0,65,0.00,,,0.00,0,weatherlink.com 1.10,2013-04-16 08:32:00,
2013-04-16 01:47:00,46.1,36.0,29.99,NE,46,1.0,4.0,67,0.00,,,0.00,0,weatherlink.com 1.10,2013-04-16 08:47:00,
2013-04-16 02:02:00,45.8,36.0,29.99,NW,323,2.0,4.0,68,0.00,,,0.00,0,weatherlink.com 1.10,2013-04-16 09:02:00,
2013-04-16 02:17:00,45.4,36.0,29.99,NE,53,0.0,2.0,69,0.00,,,0.00,0,weatherlink.com 1.10,2013-04-16 09:17:00,
2013-04-16 02:32:00,45.3,36.0,29.99,ENE,63,3.0,6.0,69,0.00,,,0.00,0,weatherlink.com 1.10,2013-04-16 09:32:00,
2013-04-16 02:47:00,45.2,36.0,29.99,NNW,330,2.0,4.0,69,0.00,,,0.00,0,weatherlink.com 1.10,2013-04-16 09:47:00,
2013-04-16 03:02:00,45.0,35.0,29.99,NW,320,1.0,5.0,69,0.00,,,0.00,0,weatherlink.com 1.10,2013-04-16 10:02:00,
2013-04-16 03:17:00,45.1,35.0,29.99,NNE,31,2.0,6.0,69,0.00,,,0.00,0,weatherlink.com 1.10,2013-04-16 10:17:00,
2013-04-16 03:32:00,45.1,35.0,30.00,NW,321,2.0,4.0,69,0.00,,,0.00,0,weatherlink.com 1.10,2013-04-16 10:32:00,
2013-04-16 03:47:00,45.2,35.0,30.00,WNW,295,8.0,9.0,68,0.00,,,0.00,0,weatherlink.com 1.10,2013-04-16 10:47:00,
2013-04-16 04:02:00,45.3,35.0,30.00,NE,56,2.0,7.0,68,0.00,,,0.00,0,weatherlink.com 1.10,2013-04-16 11:02:00,
2013-04-16 04:17:00,45.2,35.0,30.01,ENE,57,8.0,8.0,68,0.00,,,0.00,0,weatherlink.com 1.10,2013-04-16 11:17:00,
2013-04-16 04:32:00,45.2,35.0,30.01,NE,56,2.0,9.0,67,0.00,,,0.00,0,weatherlink.com 1.10,2013-04-16 11:32:00,
2013-04-16 04:47:00,45.0,35.0,30.02,NNE,27,1.0,7.0,68,0.00,,,0.00,0,weatherlink.com 1.10,2013-04-16 11:47:00,
2013-04-16 05:02:00,44.8,35.0,30.02,ENE,67,2.0,6.0,69,0.00,,,0.00,0,weatherlink.com 1.10,2013-04-16 12:02:00,
2013-04-16 05:17:00,44.7,35.0,30.03,NNE,16,2.0,5.0,69,0.00,,,0.00,0,weatherlink.com 1.10,2013-04-16 12:17:00,
2013-04-16 05:32:00,44.5,35.0,30.03,NNE,14,0.0,3.0,70,0.00,,,0.00,0,weatherlink.com 1.10,2013-04-16 12:32:00,
2013-04-16 05:47:00,44.1,35.0,30.04,NE,55,0.0,4.0,71,0.00,,,0.00,0,weatherlink.com 1.10,2013-04-16 12:47:00,
2013-04-16 06:02:00,43.9,35.0,30.05,NE,34,1.0,2.0,72,0.00,,,0.00,0,weatherlink.com 1.10,2013-04-16 13:02:00,
2013-04-16 06:17:00,43.8,35.0,30.05,NNE,19,0.0,3.0,72,0.00,,,0.00,0,weatherlink.com 1.10,2013-04-16 13:17:00,
2013-04-16 06:32:00,43.9,35.0,30.05,NNE,25,1.0,2.0,72,0.00,,,0.00,0,weatherlink.com 1.10,2013-04-16 13:32:00,
2013-04-16 06:47:00,43.8,36.0,30.06,NE,51,2.0,2.0,73,0.00,,,0.00,0,weatherlink.com 1.10,2013-04-16 13:47:00,
2013-04-16 07:02:00,43.8,36.0,30.06,NE,49,1.0,3.0,73,0.00,,,0.00,0,weatherlink.com 1.10,2013-04-16 14:02:00,
2013-04-16 07:17:00,44.2,36.0,30.07,NNE,23,0.0,3.0,73,0.00,,,0.00,0,weatherlink.com 1.10,2013-04-16 14:17:00,
2013-04-16 07:32:00,44.6,36.0,30.07,NNE,28,0.0,3.0,72,0.00,,,0.00,0,weatherlink.com 1.10,2013-04-16 14:32:00,
2013-04-16 07:47:00,44.9,36.0,30.07,NNE,32,1.0,3.0,72,0.00,,,0.00,0,weatherlink.com 1.10,2013-04-16 14:47:00,
2013-04-16 08:02:00,45.4,36.0,30.08,ENE,67,0.0,3.0,71,0.00,,,0.00,0,weatherlink.com 1.10,2013-04-16 15:02:00,
2013-04-16 08:17:00,47.5,37.0,30.08,NNW,331,2.0,5.0,67,0.00,,,0.00,0,weatherlink.com 1.10,2013-04-16 15:17:00,
2013-04-16 08:33:00,49.5,37.0,30.08,North,350,2.0,4.0,62,0.00,,,0.00,0,weatherlink.com 1.10,2013-04-16 15:33:00,
2013-04-16 08:48:00,50.5,37.0,30.09,ENE,59,0.0,5.0,60,0.00,,,0.00,0,weatherlink.com 1.10,2013-04-16 15:48:00,
2013-04-16 09:03:00,51.9,36.0,30.09,NNW,336,2.0,4.0,56,0.00,,,0.00,0,weatherlink.com 1.10,2013-04-16 16:03:00,
2013-04-16 09:18:00,52.9,37.0,30.09,ENE,57,1.0,5.0,55,0.00,,,0.00,0,weatherlink.com 1.10,2013-04-16 16:18:00,
2013-04-16 09:33:00,54.0,37.0,30.08,NNE,17,1.0,4.0,54,0.00,,,0.00,0,weatherlink.com 1.10,2013-04-16 16:33:00,
2013-04-16 09:48:00,54.7,36.0,30.08,NNW,332,4.0,5.0,49,0.00,,,0.00,0,weatherlink.com 1.10,2013-04-16 16:48:00,
2013-04-16 10:03:00,55.5,35.0,30.08,NNE,19,1.0,5.0,46,0.00,,,0.00,0,weatherlink.com 1.10,2013-04-16 17:03:00,
2013-04-16 10:18:00,56.3,35.0,30.08,NE,48,2.0,7.0,45,0.00,,,0.00,0,weatherlink.com 1.10,2013-04-16 17:18:00,
2013-04-16 10:33:00,57.2,35.0,30.09,ENE,59,2.0,5.0,43,0.00,,,0.00,0,weatherlink.com 1.10,2013-04-16 17:33:00,
2013-04-16 10:48:00,58.3,35.0,30.08,NW,309,1.0,6.0,42,0.00,,,0.00,0,weatherlink.com 1.10,2013-04-16 17:48:00,
2013-04-16 11:03:00,59.0,35.0,30.09,North,11,0.0,5.0,40,0.00,,,0.00,0,weatherlink.com 1.10,2013-04-16 18:03:00,
2013-04-16 11:18:00,60.0,34.0,30.09,East,98,0.0,7.0,38,0.00,,,0.00,0,weatherlink.com 1.10,2013-04-16 18:18:00,
2013-04-16 11:33:00,60.8,33.0,30.09,NW,309,1.0,7.0,36,0.00,,,0.00,0,weatherlink.com 1.10,2013-04-16 18:33:00,
2013-04-16 11:48:00,61.8,34.0,30.09,NW,310,2.0,7.0,35,0.00,,,0.00,0,weatherlink.com 1.10,2013-04-16 18:48:00,
2013-04-16 12:03:00,62.5,34.0,30.08,East,99,1.0,7.0,34,0.00,,,0.00,0,weatherlink.com 1.10,2013-04-16 19:03:00,
2013-04-16 12:18:00,63.2,35.0,30.08,WSW,243,5.0,8.0,35,0.00,,,0.00,0,weatherlink.com 1.10,2013-04-16 19:18:00,
2013-04-16 12:33:00,64.3,34.0,30.08,West,265,2.0,9.0,32,0.00,,,0.00,0,weatherlink.com 1.10,2013-04-16 19:33:00,
2013-04-16 12:48:00,64.7,35.0,30.07,NW,309,4.0,8.0,33,0.00,,,0.00,0,weatherlink.com 1.10,2013-04-16 19:48:00,
2013-04-16 13:03:00,65.0,33.0,30.07,ENE,59,0.0,10.0,30,0.00,,,0.00,0,weatherlink.com 1.10,2013-04-16 20:03:00,
2013-04-16 13:18:00,64.9,32.0,30.06,ESE,120,1.0,8.0,29,0.00,,,0.00,0,weatherlink.com 1.10,2013-04-16 20:18:00,
2013-04-16 13:33:00,65.6,29.0,30.06,NNE,14,2.0,11.0,25,0.00,,,0.00,0,weatherlink.com 1.10,2013-04-16 20:33:00,
2013-04-16 13:48:00,65.9,33.0,30.06,SW,234,0.0,7.0,29,0.00,,,0.00,0,weatherlink.com 1.10,2013-04-16 20:48:00,
2013-04-16 14:03:00,66.8,34.0,30.06,NE,37,1.0,7.0,30,0.00,,,0.00,0,weatherlink.com 1.10,2013-04-16 21:03:00,
2013-04-16 14:19:00,67.7,31.0,30.06,West,280,0.0,6.0,25,0.00,,,0.00,0,weatherlink.com 1.10,2013-04-16 21:19:00,
2013-04-16 14:34:00,68.0,32.0,30.06,East,94,0.0,11.0,26,0.00,,,0.00,0,weatherlink.com 1.10,2013-04-16 21:34:00,
2013-04-16 14:49:00,68.1,31.0,30.06,WNW,283,2.0,8.0,25,0.00,,,0.00,0,weatherlink.com 1.10,2013-04-16 21:49:00,
2013-04-16 15:04:00,68.1,31.0,30.05,NW,304,2.0,6.0,25,0.00,,,0.00,0,weatherlink.com 1.10,2013-04-16 22:04:00,
2013-04-16 15:19:00,68.4,32.0,30.05,West,268,1.0,6.0,26,0.00,,,0.00,0,weatherlink.com 1.10,2013-04-16 22:19:00,
2013-04-16 15:34:00,68.5,31.0,30.05,NW,311,1.0,7.0,25,0.00,,,0.00,0,weatherlink.com 1.10,2013-04-16 22:34:00,
2013-04-16 15:49:00,67.6,31.0,30.04,NW,319,2.0,7.0,26,0.00,,,0.00,0,weatherlink.com 1.10,2013-04-16 22:49:00,
2013-04-16 16:04:00,68.6,31.0,30.04,WNW,286,2.0,8.0,25,0.00,,,0.00,0,weatherlink.com 1.10,2013-04-16 23:04:00,
2013-04-16 16:19:00,68.1,30.0,30.04,West,280,3.0,9.0,24,0.00,,,0.00,0,weatherlink.com 1.10,2013-04-16 23:19:00,
2013-04-16 16:34:00,68.1,30.0,30.04,ENE,72,3.0,10.0,24,0.00,,,0.00,0,weatherlink.com 1.10,2013-04-16 23:34:00,
2013-04-16 16:49:00,68.6,35.0,30.04,WNW,291,3.0,7.0,29,0.00,,,0.00,0,weatherlink.com 1.10,2013-04-16 23:49:00,
2013-04-16 17:04:00,67.7,33.0,30.04,NNW,332,3.0,11.0,28,0.00,,,0.00,0,weatherlink.com 1.10,2013-04-17 00:04:00,
2013-04-16 17:19:00,66.7,36.0,30.05,WNW,303,5.0,8.0,32,0.00,,,0.00,0,weatherlink.com 1.10,2013-04-17 00:19:00,
2013-04-16 17:34:00,66.4,36.0,30.05,NW,311,8.0,8.0,32,0.00,,,0.00,0,weatherlink.com 1.10,2013-04-17 00:34:00,
2013-04-16 17:49:00,65.3,35.0,30.05,NNW,331,3.0,11.0,33,0.00,,,0.00,0,weatherlink.com 1.10,2013-04-17 00:49:00,
2013-04-16 18:04:00,64.4,35.0,30.06,NNW,333,3.0,11.0,34,0.00,,,0.00,0,weatherlink.com 1.10,2013-04-17 01:04:00,
2013-04-16 18:19:00,63.8,36.0,30.06,NE,35,4.0,10.0,35,0.00,,,0.00,0,weatherlink.com 1.10,2013-04-17 01:19:00,
2013-04-16 18:34:00,63.4,36.0,30.06,WNW,283,3.0,9.0,37,0.00,,,0.00,0,weatherlink.com 1.10,2013-04-17 01:34:00,
2013-04-16 18:49:00,62.8,37.0,30.06,NE,49,2.0,10.0,38,0.00,,,0.00,0,weatherlink.com 1.10,2013-04-17 01:49:00,
2013-04-16 19:04:00,62.4,38.0,30.06,NNE,16,2.0,7.0,40,0.00,,,0.00,0,weatherlink.com 1.10,2013-04-17 02:04:00,
2013-04-16 19:19:00,61.5,39.0,30.07,WSW,254,3.0,5.0,43,0.00,,,0.00,0,weatherlink.com 1.10,2013-04-17 02:19:00,
2013-04-16 19:34:00,60.2,40.0,30.07,WNW,300,0.0,4.0,47,0.00,,,0.00,0,weatherlink.com 1.10,2013-04-17 02:34:00,
2013-04-16 19:49:00,58.4,40.0,30.08,NW,325,0.0,5.0,50,0.00,,,0.00,0,weatherlink.com 1.10,2013-04-17 02:49:00,
2013-04-16 20:04:00,57.0,40.0,30.08,NE,51,0.0,2.0,54,0.00,,,0.00,0,weatherlink.com 1.10,2013-04-17 03:04:00,
2013-04-16 20:19:00,56.3,41.0,30.09,ENE,58,0.0,4.0,56,0.00,,,0.00,0,weatherlink.com 1.10,2013-04-17 03:19:00,
2013-04-16 20:34:00,55.7,42.0,30.10,NE,53,0.0,3.0,60,0.00,,,0.00,0,weatherlink.com 1.10,2013-04-17 03:34:00,
2013-04-16 20:49:00,54.4,41.0,30.10,North,355,0.0,1.0,62,0.00,,,0.00,0,weatherlink.com 1.10,2013-04-17 03:49:00,
2013-04-16 21:04:00,53.3,41.0,30.11,NNE,20,0.0,1.0,64,0.00,,,0.00,0,weatherlink.com 1.10,2013-04-17 04:04:00,
2013-04-16 21:19:00,53.0,42.0,30.12,North,5,0.0,1.0,66,0.00,,,0.00,0,weatherlink.com 1.10,2013-04-17 04:19:00,
2013-04-16 21:34:00,52.9,43.0,30.12,NE,46,0.0,1.0,68,0.00,,,0.00,0,weatherlink.com 1.10,2013-04-17 04:34:00,
2013-04-16 21:49:00,52.8,43.0,30.13,NE,46,0.0,2.0,69,0.00,,,0.00,0,weatherlink.com 1.10,2013-04-17 04:49:00,
2013-04-16 22:04:00,51.8,42.0,30.13,NE,35,0.0,1.0,69,0.00,,,0.00,0,weatherlink.com 1.10,2013-04-17 05:04:00,
2013-04-16 22:19:00,52.5,42.0,30.14,North,5,1.0,4.0,67,0.00,,,0.00,0,weatherlink.com 1.10,2013-04-17 05:19:00,
2013-04-16 22:34:00,53.1,41.0,30.14,NNE,23,1.0,3.0,64,0.00,,,0.00,0,weatherlink.com 1.10,2013-04-17 05:34:00,
2013-04-16 22:49:00,53.2,42.0,30.14,ENE,70,2.0,2.0,65,0.00,,,0.00,0,weatherlink.com 1.10,2013-04-17 05:49:00,
2013-04-16 23:04:00,52.9,41.0,30.15,NW,320,1.0,2.0,65,0.00,,,0.00,0,weatherlink.com 1.10,2013-04-17 06:04:00,
2013-04-16 23:19:00,52.4,40.0,30.15,NE,52,0.0,1.0,64,0.00,,,0.00,0,weatherlink.com 1.10,2013-04-17 06:19:00,
2013-04-16 23:34:00,52.4,40.0,30.16,NE,49,0.0,2.0,63,0.00,,,0.00,0,weatherlink.com 1.10,2013-04-17 06:34:00,
2013-04-16 23:49:00,52.2,38.0,30.16,NNE,26,0.0,2.0,60,0.00,,,0.00,0,weatherlink.com 1.10,2013-04-17 06:49:00,